Regional Weather Roundup
Issued by NWS

Home | Current Version | Previous Version | Text Only | Print | Product List | Glossary Off
Versions: 1 2 3 4 5 6 7 8 9 10 11 12 13 14 15 16 17 18 19 20 21 22 23 24 25 26 27 28 29 30 31 32 33 34 35 36 37 38 39 40 41 42 43 44 45 46 47 48 49 50

000
ASUS45 KABQ 181901
RWRNM
NEW MEXICO REGIONAL WEATHER ROUNDUP
NATIONAL WEATHER SERVICE ALBUQUERQUE NM
100 PM MDT FRI AUG 18 2017

NOTE: "FAIR" MEANS FEW OR NO CLOUDS BELOW 12,000 FEET AGL WITH NO
       SIGNIFICANT WEATHER OR OBSTRUCTIONS TO VISION.

      THIS PRODUCT IS RELEASED AS TWO VERSIONS.  ONE VERSION NEAR
      THE TOP OF THE HOUR CONTAINING PRELIMINARY DATA FROM ALBUQUERQUE
      AND OTHER STATIONS.  A FINAL VERSION WITH ADDITIONAL DATA IS
      ISSUED ABOUT 10 MINUTES AFTER THE HOUR.

NMZ501-503-504-510>518-182000-
NORTHWEST PLATEAU/NORTHCENTRAL MOUNTAINS

CITY           SKY/WX    TMP DP  RH WIND       PRES   REMARKS
FARMINGTON     FAIR      86  28  12 SE5       30.22F
LOS ALAMOS     PTSUNNY   81  29  15 E7        30.37F
SANTA FE       FAIR      84  31  14 E8        30.28F
TAOS           FAIR      81  31  16 VRB5      30.37F
ANGEL FIRE     FAIR      72  35  25 W8        30.45F

$$
NMZ402-403-502-505>509-182000-
WESTCENTRAL MOUNTAINS/SOUTHWEST MOUNTAINS

CITY           SKY/WX    TMP DP  RH WIND       PRES   REMARKS
GALLUP         FAIR      85  30  13 VRB5      30.31F
GRANTS         FAIR      86  28  12 SW3       30.32F
SILVER CITY    FAIR      87  42  20 W7        30.23S

$$
NMZ407-409-411-412-182000-
SOUTHERN DESERTS

CITY           SKY/WX    TMP DP  RH WIND       PRES   REMARKS
DEMING         FAIR      91  47  21 CALM      30.14F
LAS CRUCES     FAIR      90  49  23 N6        30.16F
HOLLOMAN AFB   FAIR      94  54  25 CALM      30.14F
ALAMOGORDO     FAIR      90  54  29 W3        30.14F
T OR C         FAIR      90  38  16 VRB3      30.16F

$$
NMZ519>523-182000-
CENTRAL VALLEYS/CENTRAL HIGHLANDS

CITY           SKY/WX    TMP DP  RH WIND       PRES   REMARKS
ALBUQUERQUE    FAIR      87  36  16 VRB3      30.22F
DOUBLE EAGLE   MOSUNNY   84  39  20 E6        30.27F
CLINES CORNERS FAIR      80  38  22 NW8       30.34F
BELEN          NOT AVBL
SOCORRO        NOT AVBL

$$
NMZ524>526-539-540-182000-
SOUTHCENTRAL MOUNTAINS

CITY           SKY/WX    TMP DP  RH WIND       PRES   REMARKS
RUIDOSO        LGT RAIN  77  46  33 NW7       30.35S

$$
NMZ527>531-182000-
NORTHEAST HIGHLANDS/NORTHEAST PLAINS

CITY           SKY/WX    TMP DP  RH WIND       PRES   REMARKS
LAS VEGAS      FAIR      79  35  20 SW17G31   30.35S
RATON          FAIR      83  39  21 CALM      30.26F
CLAYTON        FAIR      83  59  44 SW6       30.19F

$$
NMZ532>537-182000-
EASTCENTRAL PLAINS

CITY           SKY/WX    TMP DP  RH WIND       PRES   REMARKS
SANTA ROSA     FAIR      85  57  37 SE7       30.17F
TUCUMCARI      FAIR      90  60  36 S8        30.11F
CANNON AFB     FAIR      82  70  65 SE17      30.18F
CLOVIS AIRPORT FAIR      81  67  62 S14G21    30.17

$$
NMZ028-029-538-182000-
SOUTHEAST PLAINS

CITY           SKY/WX    TMP DP  RH WIND       PRES   REMARKS
ROSWELL        FAIR      91  59  33 SE12      30.10
ARTESIA        FAIR      90  61  37 SE8G15    30.10F
CARLSBAD       FAIR      90  64  42 MISG      30.07F
HOBBS          MOSUNNY   88  63  42 SE12      30.13F


$$



USA.gov is the U.S. government's official web portal to all federal, state and local government web resources and services.